Tracking 18980 objects as of 19-Feb-2018
HD Live streaming from Space Station
objects crossing your sky now

FENGYUN 1C DEB

Track FENGYUN 1C DEB now!
10-day predictions


NORAD ID: 30387
Int'l Code: 1999-025ADA
Perigee: 857.6 km
Apogee: 858.7 km
Inclination: 98.9 °
Period: 102.0 minutes
Semi major axis: 7229 km
RCS: 0.024 m2 (small)
Launch date: May 10, 1999
Source: People's Republic of China (PRC)
Launch site: Taiyaun Space Center, China (TSC)

Note: This is SATELLITE DEBRIS
aabbcc
Your satellite tracking list
Your tracking list is empty




NASA's NSSDC Master Catalog

Two Line Element Set (TLE):
1 30387U 99025ADA 18049.31234473 +.00000108 +00000-0 +82985-4 0  9990
2 30387 098.9384 078.6540 0000750 090.5480 042.6781 14.12446377570089
Source of the keplerian elements: AFSPC